Wind_Speed
5 5 5 4 5 5 5 4 4 4 3 3 4 4 4 3 4 4 3 4 4 4 5 5 6 6 5 5 5 6 6 6 6 6 6 6 6 6 6 7 7 7 7 7 7 7 7 7 8
5 5 5 5 5 6 5 5 4 4 3 4 3 4 4 4 5 4 3 3 4 4 4 5 6 6 6 6 6 7 7 7 6 6 6 7 6 6 7 7 7 8 8 8 8 8 8 7 8
5 5 5 6 6 6 5 5 4 4 4 4 4 4 5 5 5 5 5 4 4 4 4 5 5 6 6 6 6 7 7 7 7 7 6 7 8 8 8 8 8 8 8 9 9 9 9 8 8
7 6 6 7 7 6 5 5 5 4 4 5 5 5 5 5 5 5 5 5 5 5 5 5 5 5 6 6 7 7 7 7 7 8 8 8 8 8 9 9 8 8 9 9 9 9 10 10 9
7 6 7 7 7 6 6 5 5 4 5 5 5 5 5 5 4 4 5 4 4 4 5 5 5 6 6 7 7 7 7 7 8 8 8 8 8 8 9 9 9 9 9 10 10 9 10 10 10
7 7 7 7 6 5 5 5 5 5 6 5 5 5 5 4 3 3 4 3 3 4 4 5 5 5 6 7 7 8 8 8 8 8 7 7 7 8 8 9 9 9 10 10 10 10 10 11 11
7 7 7 7 7 6 5 5 5 6 5 5 5 5 5 5 4 4 3 3 4 4 4 5 6 6 6 7 7 7 7 7 7 8 7 7 7 7 8 9 9 10 11 11 11 11 11 12 12
7 7 6 6 6 6 5 5 5 5 5 6 6 5 5 5 4 4 3 3 3 4 4 5 6 6 7 7 7 7 7 7 7 8 8 8 7 8 9 9 10 10 11 11 12 12 13 13 13
6 7 6 6 6 6 5 5 5 5 5 5 5 5 5 5 4 4 3 3 4 4 5 5 6 6 7 7 7 8 8 8 8 8 8 9 9 9 10 10 11 11 11 12 12 13 13 13 14
6 6 6 6 5 5 5 5 4 5 5 5 5 5 5 4 4 4 4 4 4 5 5 5 5 6 7 7 7 7 7 8 8 9 9 9 9 10 10 11 11 12 12 12 13 13 13 13 14
6 6 6 6 6 6 5 4 4 4 4 4 5 4 4 4 4 4 4 5 5 6 5 5 5 6 6 6 6 7 7 8 8 9 9 10 10 10 10 11 11 12 12 12 13 13 13 13 14
7 7 6 6 5 5 4 4 4 3 4 3 4 4 4 5 5 5 5 5 6 6 6 6 6 6 5 6 6 7 7 8 8 9 9 10 10 10 11 11 11 12 12 12 13 13 14 14 14
6 6 6 6 6 5 5 4 4 3 4 4 4 4 5 5 6 5 6 6 6 6 7 7 6 7 7 7 7 7 8 8 8 9 9 10 10 11 11 11 11 12 12 12 12 12 13 13 14
6 7 6 6 6 6 5 5 5 5 5 5 5 5 6 6 6 6 6 6 6 7 7 8 8 8 8 8 8 8 8 8 9 9 10 10 11 11 11 11 12 12 12 12 13 13 13 13 14
7 7 6 7 7 6 6 6 6 6 6 6 6 6 7 7 7 7 7 6 7 7 8 8 9 9 9 9 10 9 9 10 10 10 11 11 11 12 12 12 12 12 12 13 13 13 13 13 14
7 6 7 7 7 7 7 7 7 6 6 7 7 7 7 7 8 7 7 7 8 8 8 9 9 10 10 11 11 10 10 10 11 12 12 12 12 13 13 13 13 13 13 13 13 14 14 14 14
7 7 7 7 8 8 8 8 8 8 7 7 7 7 7 7 8 8 8 8 9 9 9 10 10 10 11 11 11 11 11 11 12 12 13 13 14 14 14 14 14 14 14 14 14 14 14 14 14
8 7 7 7 8 8 8 7 8 7 7 7 7 7 7 8 8 9 9 10 10 10 10 11 11 11 11 11 11 12 12 12 13 14 13 13 14 14 14 14 15 15 15 15 14 14 14 14 14
9 8 8 8 7 8 8 7 8 8 8 7 7 7 7 8 9 9 10 10 10 10 11 11 12 12 11 12 12 12 13 14 14 14 13 13 13 14 14 14 14 14 14 14 14 15 15 14 14
10 9 9 9 8 9 8 8 8 8 9 9 8 8 8 8 9 9 10 10 10 10 11 12 12 12 12 13 13 14 14 14 14 15 14 14 13 13 14 14 15 15 15 15 15 15 15 15 15
10 10 10 10 11 10 10 9 9 9 9 9 8 8 9 9 10 11 11 11 11 11 12 12 13 13 13 13 13 14 14 15 15 15 14 14 14 14 14 15 15 15 15 15 16 15 15 15 15
11 10 11 11 11 11 11 9 10 9 8 8 9 9 9 10 11 12 12 11 11 12 13 13 13 13 14 14 14 14 14 15 15 14 14 15 15 14 14 15 15 15 16 16 16 16 16 15 15
11 11 12 12 12 11 11 11 9 9 8 8 9 10 11 11 11 12 13 13 13 13 13 13 14 14 15 15 15 15 15 15 15 15 14 15 15 15 15 15 15 16 16 16 17 16 16 16 15
12 12 13 14 13 13 12 12 10 9 9 9 10 11 11 12 13 13 14 14 14 14 14 14 15 15 16 16 16 15 15 15 15 15 16 16 16 15 15 15 15 16 17 17 17 17 16 16 16
13 13 14 14 14 13 13 13 11 10 10 10 11 12 12 13 14 13 14 14 14 14 14 14 15 16 16 16 17 16 16 16 16 16 16 16 16 15 15 16 16 17 18 17 17 17 17 17 17
14 14 15 15 14 13 13 13 11 11 11 11 12 12 13 13 13 13 14 14 15 15 15 15 16 16 16 17 18 17 17 16 16 16 16 16 16 15 16 16 17 18 18 18 17 17 17 17 18
14 15 16 16 15 14 14 14 13 12 12 12 13 13 13 14 13 14 15 15 15 16 16 17 17 17 17 18 18 18 17 17 17 17 17 17 16 16 16 17 18 18 18 18 18 18 18 18 18
15 15 16 16 16 16 15 14 14 13 13 13 13 14 14 14 15 15 15 16 16 16 17 18 19 19 18 18 18 18 18 18 18 18 18 17 17 17 18 18 19 19 19 19 19 19 19 19 19
16 16 16 17 18 17 17 15 14 15 15 15 15 14 14 14 15 15 16 16 16 17 18 18 19 19 19 19 19 19 19 19 19 19 19 19 19 19 19 19 19 19 20 20 20 20 19 19 19
17 17 17 18 18 18 18 16 15 15 16 16 16 15 14 15 15 16 16 16 17 17 18 18 18 19 19 20 20 20 20 20 21 21 21 20 20 20 20 21 21 20 21 21 20 20 20 20 20
Wind_Direction
236 234 231 227 227 227 226 227 233 241 251 258 264 267 263 255 266 260 252 255 257 256 253 253 252 255 256 258 259 259 263 261 256 255 253 253 253 254 255 254 250 248 249 248 247 250 248 247 247
242 242 243 232 236 235 231 233 235 246 262 274 267 268 264 266 267 266 269 268 260 254 248 252 252 255 255 258 260 259 260 256 255 258 260 257 256 258 259 254 252 250 250 251 249 250 250 250 252
251 248 237 232 240 243 237 227 233 245 260 273 274 268 267 266 268 266 269 268 262 261 257 254 252 253 256 257 257 257 258 254 253 257 263 258 255 254 255 251 250 250 252 253 251 252 254 257 258
261 251 244 243 247 254 251 248 243 247 264 271 271 270 269 268 266 261 265 267 261 260 259 259 256 256 258 258 258 258 259 256 255 259 262 263 263 259 258 254 254 255 256 256 256 256 258 260 262
260 249 248 247 246 254 256 252 248 257 268 268 270 272 271 270 260 255 260 263 257 259 262 262 265 260 257 258 259 259 259 259 259 263 267 264 261 260 260 256 257 259 258 257 258 262 263 263 264
256 251 248 249 252 259 259 263 267 274 275 273 268 269 267 267 264 263 263 263 265 264 268 268 269 262 261 262 261 259 257 260 261 264 266 267 262 258 260 256 258 260 259 261 260 266 265 264 264
251 252 247 249 251 250 260 270 274 277 280 271 263 260 263 268 271 268 267 264 266 267 272 272 270 270 265 264 261 262 260 261 262 265 264 265 263 261 262 263 264 266 266 265 264 264 264 264 266
250 255 254 254 251 250 255 263 268 269 271 270 266 260 260 261 265 266 266 264 268 274 279 278 275 275 272 270 269 269 264 265 266 269 268 268 268 268 268 270 270 271 269 267 265 265 265 266 268
249 252 256 255 254 253 253 257 258 263 265 262 260 258 255 258 265 262 264 271 273 281 284 281 280 281 279 277 277 274 273 274 272 273 275 276 275 275 275 271 272 273 272 271 267 266 267 268 269
249 247 245 248 251 251 253 256 259 263 262 257 258 261 262 265 269 268 263 274 280 284 289 291 289 287 286 283 278 273 272 272 272 274 277 278 278 277 278 278 276 277 276 274 272 270 271 271 270
249 248 242 245 248 251 254 257 264 266 263 259 260 262 263 268 272 280 283 280 280 279 281 285 289 287 284 283 282 277 276 276 274 275 276 278 281 280 280 283 283 281 280 279 276 274 273 272 271
246 245 243 245 243 245 252 263 278 278 274 277 275 269 266 269 276 275 276 276 282 280 278 279 279 282 283 285 284 281 280 280 280 276 276 278 281 282 281 282 281 281 280 277 277 277 276 274 273
242 242 239 237 236 239 247 253 261 262 262 261 264 261 261 271 274 271 278 282 280 277 277 275 272 277 279 281 282 280 282 281 280 279 279 281 282 283 284 287 286 287 285 280 279 279 279 277 274
237 240 234 235 236 234 244 255 256 252 258 259 258 257 263 267 269 276 280 282 284 277 276 275 273 278 278 280 281 279 280 280 279 280 280 279 280 280 282 287 291 292 291 286 283 281 279 280 280
235 240 238 235 237 239 245 253 257 258 260 261 262 263 266 272 276 282 286 288 287 283 280 277 275 277 278 278 280 279 280 280 279 281 283 283 281 280 281 283 288 290 289 287 284 281 280 281 281
242 244 246 242 241 246 251 254 259 260 263 265 265 266 272 277 280 285 288 289 287 285 283 280 277 276 276 277 278 280 282 285 283 283 284 285 284 282 282 282 285 287 286 284 284 283 280 282 282
252 251 253 251 248 248 253 259 261 266 267 267 267 266 269 275 276 278 283 286 287 286 286 285 280 278 277 274 274 278 280 283 285 286 287 285 282 282 283 284 285 287 286 284 282 282 281 282 282
257 260 258 257 253 254 257 260 258 263 264 267 271 271 272 277 276 277 279 281 281 280 282 284 284 282 278 275 275 279 284 285 288 289 292 289 284 281 282 284 285 286 287 285 283 283 281 281 280
261 263 264 264 256 255 255 259 263 266 262 263 268 274 273 274 277 277 278 278 277 276 276 280 283 284 281 278 278 280 284 287 291 294 292 288 284 283 283 284 285 284 285 286 286 285 284 282 283
259 260 262 262 261 257 256 260 262 265 260 260 266 272 278 281 279 280 282 278 276 276 278 283 286 286 285 284 282 285 287 289 291 291 291 288 284 283 283 283 283 282 283 284 285 285 285 283 282
255 259 262 263 264 264 262 262 259 261 261 261 266 271 275 280 283 283 283 282 281 283 285 286 286 286 286 285 283 284 285 287 288 288 287 286 286 286 284 283 283 283 283 285 285 285 287 284 282
256 262 263 264 262 265 265 263 260 261 261 261 264 268 275 281 282 284 282 281 284 285 287 288 287 287 285 283 282 284 285 289 289 285 286 287 288 288 286 284 284 284 285 287 288 287 285 283 281
259 262 262 264 263 263 265 265 259 262 262 263 265 268 274 280 282 283 283 283 284 286 286 285 284 287 286 283 283 284 285 286 288 287 287 288 289 289 288 286 285 284 286 287 288 287 284 281 279
259 262 264 266 266 263 262 262 258 261 263 268 271 274 279 284 283 282 283 285 285 286 285 283 284 285 284 282 281 282 282 283 285 288 288 287 288 286 288 287 286 287 287 288 287 285 282 280 279
256 258 260 262 264 263 261 261 261 264 267 269 272 276 282 287 287 284 283 284 284 283 282 283 285 286 283 281 280 280 280 281 284 285 286 287 288 289 289 288 288 288 289 288 287 283 281 279 279
260 262 262 265 268 268 265 264 263 267 273 275 276 280 283 287 287 286 286 286 285 283 280 281 283 285 284 281 280 281 280 279 282 283 285 286 288 289 290 290 289 289 292 289 287 284 282 281 281
259 261 261 263 265 271 268 266 264 272 277 281 284 285 285 286 287 288 290 292 290 287 281 281 283 284 284 283 282 282 281 279 279 281 283 285 288 288 288 290 291 292 292 290 287 284 283 281 280
260 261 260 260 263 266 267 267 268 272 278 280 281 284 286 287 288 289 290 291 292 288 284 282 282 284 284 282 281 282 281 279 278 279 283 283 285 287 287 288 290 291 290 287 285 284 282 280 278
262 259 259 260 263 265 266 268 272 275 281 282 282 283 284 286 287 288 289 289 289 288 287 284 283 282 282 281 280 281 280 279 279 281 282 282 281 284 286 287 289 289 289 287 283 282 281 279 278
263 261 259 261 263 264 266 266 267 272 278 280 280 282 283 283 286 288 290 291 291 290 289 286 284 282 281 281 280 280 279 278 279 281 282 283 283 283 285 287 290 289 288 288 284 281 280 279 277
Height
5868 5868 5869 5870 5870 5870 5870 5870 5870 5870 5870 5870 5870 5871 5871 5871 5872 5874 5872 5870 5870 5870 5870 5870 5870 5870 5870 5870 5870 5870 5870 5870 5870 5870 5869 5869 5869 5869 5869 5869 5869 5869 5869 5869 5869 5869 5869 5869 5869
5867 5867 5869 5869 5869 5869 5869 5869 5869 5869 5869 5869 5869 5870 5870 5870 5870 5870 5869 5869 5869 5869 5869 5869 5869 5869 5869 5869 5869 5869 5869 5869 5869 5869 5868 5868 5868 5868 5868 5868 5868 5868 5868 5868 5868 5868 5868 5868 5868
5867 5867 5868 5868 5868 5868 5868 5867 5867 5868 5868 5868 5868 5869 5869 5869 5869 5868 5868 5868 5868 5868 5868 5868 5868 5868 5868 5868 5868 5868 5868 5868 5868 5867 5867 5867 5867 5867 5867 5867 5867 5867 5867 5867 5867 5867 5866 5866 5866
5866 5867 5867 5867 5867 5867 5867 5866 5866 5867 5867 5867 5867 5867 5867 5868 5868 5867 5867 5867 5867 5867 5866 5866 5866 5866 5866 5866 5867 5867 5866 5866 5866 5866 5866 5866 5866 5865 5865 5865 5865 5865 5865 5865 5865 5865 5865 5865 5865
5865 5865 5866 5865 5865 5865 5865 5865 5865 5865 5866 5866 5866 5866 5866 5866 5866 5866 5866 5866 5865 5865 5865 5865 5865 5865 5865 5865 5865 5865 5865 5865 5865 5865 5865 5864 5864 5864 5864 5864 5864 5864 5864 5863 5863 5863 5863 5863 5863
5864 5864 5865 5864 5864 5864 5864 5864 5864 5865 5864 5865 5865 5865 5865 5864 5864 5864 5864 5864 5864 5864 5864 5864 5864 5864 5864 5864 5864 5864 5864 5863 5863 5863 5863 5863 5862 5862 5862 5862 5862 5862 5862 5861 5861 5861 5861 5861 5861
5863 5863 5863 5863 5863 5863 5863 5863 5863 5863 5863 5863 5863 5863 5863 5863 5863 5863 5863 5863 5863 5863 5863 5862 5862 5862 5862 5862 5862 5862 5862 5862 5862 5862 5861 5861 5861 5860 5860 5860 5860 5860 5860 5859 5859 5859 5859 5859 5858
5861 5862 5861 5861 5861 5862 5862 5861 5861 5861 5861 5861 5862 5862 5862 5862 5862 5862 5862 5862 5862 5861 5861 5861 5861 5861 5861 5861 5860 5860 5860 5860 5860 5860 5860 5859 5859 5859 5858 5858 5858 5858 5857 5857 5857 5856 5856 5856 5856
5860 5861 5860 5860 5860 5860 5860 5860 5860 5860 5860 5860 5860 5860 5861 5861 5860 5861 5861 5861 5860 5860 5860 5860 5860 5859 5859 5859 5859 5859 5859 5859 5858 5858 5858 5858 5857 5857 5857 5856 5856 5855 5855 5854 5854 5853 5853 5853 5853
5858 5858 5859 5859 5858 5858 5858 5859 5859 5858 5858 5858 5858 5859 5859 5859 5859 5859 5859 5859 5859 5859 5859 5859 5858 5858 5858 5858 5857 5857 5857 5857 5857 5856 5856 5856 5855 5855 5854 5854 5853 5853 5852 5852 5851 5851 5850 5850 5850
5856 5857 5857 5857 5857 5857 5857 5857 5857 5857 5857 5857 5857 5858 5858 5858 5858 5858 5858 5858 5858 5858 5857 5857 5857 5857 5856 5856 5856 5855 5855 5855 5855 5854 5854 5853 5853 5853 5852 5851 5851 5850 5850 5849 5848 5847 5847 5847 5846
5855 5855 5855 5855 5855 5855 5855 5856 5856 5856 5856 5856 5856 5856 5856 5856 5856 5856 5857 5857 5857 5856 5856 5856 5855 5855 5855 5854 5854 5854 5853 5853 5853 5852 5852 5851 5851 5850 5850 5849 5848 5847 5847 5846 5845 5844 5844 5843 5843
5853 5854 5854 5854 5854 5854 5854 5855 5855 5855 5855 5855 5854 5855 5855 5855 5855 5855 5855 5855 5855 5855 5854 5854 5854 5853 5853 5853 5852 5852 5851 5851 5851 5850 5850 5849 5848 5848 5847 5846 5846 5845 5844 5843 5842 5842 5841 5840 5839
5852 5852 5852 5852 5852 5852 5853 5853 5854 5854 5853 5853 5853 5853 5854 5854 5854 5853 5853 5853 5853 5853 5853 5852 5852 5852 5851 5851 5850 5850 5849 5849 5848 5848 5847 5847 5846 5845 5844 5844 5843 5842 5841 5840 5839 5838 5837 5837 5836
5850 5851 5851 5850 5850 5851 5852 5852 5852 5852 5852 5852 5852 5852 5852 5852 5852 5851 5851 5851 5851 5851 5850 5850 5850 5849 5849 5849 5848 5847 5847 5846 5845 5845 5844 5844 5843 5842 5841 5840 5840 5838 5837 5836 5836 5835 5834 5833 5832
5849 5849 5849 5849 5849 5849 5851 5850 5850 5850 5850 5850 5850 5850 5850 5850 5849 5849 5849 5849 5849 5848 5848 5848 5847 5847 5846 5846 5845 5845 5844 5843 5842 5842 5841 5840 5839 5839 5838 5837 5836 5835 5834 5833 5832 5831 5830 5829 5829
5847 5847 5847 5847 5847 5847 5848 5848 5848 5847 5848 5848 5848 5848 5848 5848 5848 5847 5847 5847 5846 5846 5845 5845 5844 5844 5844 5843 5842 5842 5841 5840 5839 5838 5837 5836 5835 5835 5834 5833 5832 5831 5830 5829 5828 5827 5826 5826 5825
5844 5845 5845 5845 5845 5845 5845 5845 5845 5845 5845 5845 5845 5845 5845 5845 5845 5845 5845 5844 5844 5843 5842 5842 5841 5841 5840 5840 5839 5838 5838 5837 5836 5835 5834 5832 5831 5831 5830 5830 5829 5828 5827 5826 5825 5824 5823 5822 5821
5842 5842 5842 5842 5842 5842 5842 5843 5843 5843 5843 5843 5843 5843 5843 5843 5843 5842 5842 5841 5840 5840 5839 5838 5838 5837 5837 5836 5836 5835 5834 5833 5833 5832 5830 5829 5828 5827 5826 5826 5825 5824 5823 5822 5821 5820 5818 5818 5816
5839 5840 5840 5840 5840 5840 5840 5840 5840 5840 5840 5840 5840 5840 5840 5840 5840 5839 5839 5838 5837 5837 5836 5835 5834 5834 5833 5833 5832 5831 5830 5829 5828 5828 5827 5825 5824 5823 5822 5821 5820 5820 5819 5818 5817 5816 5814 5813 5812
5837 5837 5837 5837 5837 5837 5837 5838 5838 5838 5837 5838 5838 5837 5837 5837 5837 5836 5835 5835 5834 5833 5832 5832 5831 5830 5829 5829 5828 5827 5827 5825 5825 5824 5823 5822 5820 5819 5818 5817 5816 5815 5814 5813 5812 5811 5810 5808 5808
5833 5834 5834 5834 5834 5834 5835 5835 5835 5835 5835 5835 5835 5835 5834 5834 5834 5833 5832 5831 5830 5829 5829 5828 5827 5826 5825 5825 5824 5824 5823 5822 5820 5819 5818 5817 5816 5815 5814 5813 5812 5811 5810 5809 5808 5806 5805 5804 5803
5830 5830 5830 5830 5830 5830 5831 5831 5832 5832 5832 5832 5831 5831 5831 5831 5830 5829 5828 5827 5826 5825 5824 5823 5823 5822 5821 5820 5820 5819 5818 5818 5816 5815 5814 5813 5812 5811 5810 5809 5808 5807 5806 5804 5803 5801 5800 5800 5799
5827 5827 5826 5826 5826 5827 5827 5827 5829 5828 5829 5828 5828 5828 5827 5827 5826 5825 5824 5823 5822 5821 5820 5819 5819 5818 5817 5816 5815 5815 5814 5813 5812 5811 5811 5810 5808 5807 5806 5804 5803 5802 5801 5799 5798 5797 5796 5795 5794
5823 5824 5824 5823 5822 5823 5824 5823 5825 5825 5825 5825 5824 5824 5823 5823 5822 5821 5820 5819 5818 5817 5816 5815 5815 5814 5813 5812 5811 5810 5810 5809 5808 5807 5806 5805 5804 5802 5801 5800 5799 5797 5796 5794 5793 5791 5791 5790 5789
5819 5820 5820 5820 5820 5820 5820 5819 5821 5821 5821 5821 5820 5820 5819 5819 5818 5817 5816 5815 5814 5813 5812 5811 5810 5810 5809 5808 5806 5806 5805 5804 5803 5802 5801 5800 5799 5798 5797 5795 5794 5792 5791 5789 5787 5786 5785 5785 5784
5815 5815 5816 5816 5815 5815 5816 5816 5816 5816 5817 5816 5816 5815 5815 5814 5814 5813 5812 5811 5810 5808 5807 5807 5806 5805 5804 5802 5801 5800 5800 5799 5798 5797 5796 5795 5794 5793 5791 5790 5789 5787 5785 5784 5782 5781 5780 5779 5778
5811 5811 5811 5811 5811 5811 5812 5811 5813 5813 5812 5812 5812 5811 5811 5810 5809 5808 5807 5806 5805 5804 5803 5802 5801 5799 5798 5797 5796 5795 5794 5794 5793 5791 5790 5789 5788 5787 5786 5785 5783 5782 5780 5778 5777 5775 5774 5773 5772
5806 5806 5806 5806 5806 5807 5807 5810 5809 5808 5808 5808 5808 5807 5807 5806 5805 5804 5803 5801 5800 5799 5798 5796 5795 5794 5793 5792 5791 5790 5789 5788 5787 5786 5785 5784 5783 5782 5780 5778 5777 5775 5774 5772 5771 5769 5768 5767 5766
5801 5801 5801 5802 5802 5801 5802 5806 5804 5804 5803 5803 5803 5802 5802 5801 5800 5799 5798 5797 5795 5794 5792 5791 5790 5788 5787 5786 5785 5784 5783 5782 5782 5780 5779 5778 5777 5776 5774 5772 5770 5769 5767 5765 5764 5763 5762 5761 5760